INSAT-3D

Last updated on Wed Sep 09 2026 00:02:40 GMT+0000 (Coordinated Universal Time)

1 39216U 13038B 26251.47073326 -.00000360 00000+0 00000+0 0 9992 2 39216 2.1348 81.3980 0001436 132.2171 72.8787 1.00268271 47918
UTC large
Height (km)
Speed (km/s)
/
Latitude / Longitude
Inclination (degrees)
Orbital Period (minutes)
Azimuth
Elevation
Range (km)
Doppler Factor

Next 0 passes for location: London (51.5072 / 0.1276)

No passes found over London.
INSAT-3D